Location: Chateh
(58.6667°N, 118.6000°W)
Time: 19:59:21
(UTC+00:00)

ISS - Visible Passes

Search period start: 23 April 2024 00:00
Search period end: 03 May 2024 00:00
Orbit: 411 x 418 km, 51.6° (Epoch: 23 April)

Date Brightness Start Highest point End Pass type
(mag) Time Alt. Az. Time Alt. Az. Time Alt. Az.
26 Apr -1.3 11:13:53 10° S 11:15:06 12° SSE 11:16:18 10° SE visible
28 Apr -1.8 11:10:25 10° SSW 11:12:39 17° SSE 11:14:55 10° ESE visible
29 Apr -1.6 10:22:04 11° S 10:23:27 14° SSE 10:25:14 10° ESE visible
30 Apr -1.4 09:34:13 11° SSE 09:34:13 11° SSE 09:35:01 10° SE visible
01 May -2.1 10:19:05 14° SSW 10:20:38 19° SSE 10:23:05 10° ESE visible
02 May -1.9 09:31:04 16° SSE 09:31:11 16° SSE 09:33:20 10° ESE visible
